Puerto Plata, Dominican Republic

10:46 PM AST on February 07, 2016 (GMT -0400)
Gregorio Luperon International

Weather History for MDPP - April, 2013

Change the Weather History Date:

Thursday, April 11, 2013

  Actual Average Record
Temperature  
Mean Temperature 79 °F -  
Max Temperature 87 °F 83 °F 89 °F (2003)
Min Temperature 71 °F 71 °F 68 °F (2012)
Cooling Degree Days 14    
Growing Degree Days 29 (Base 50)    
Moisture  
Dew Point 72 °F    
Average Humidity 74    
Maximum Humidity 94    
Minimum Humidity 59    
Precipitation  
Precipitation 0.00 in - - ()
Sea Level Pressure  
Sea Level Pressure 29.97 in    
Wind  
Wind Speed 7 mph ()    
Max Wind Speed 21 mph    
Max Gust Speed -    
Visibility 6.8 miles    
Events      
Averages and records for this station are not official NWS values.
T = Trace of Precipitation, MM = Missing Value Source: Averaged Metar Reports

Daily Weather History Graph

Daily Weather History Graph

Search for Another Location

Airport or City:

Trip Planner

Search our weather history database for the weather conditions in past years. The results will help you decide how hot, cold, wet, or windy it might be!

Date:

Astronomy

Apr. 11, 2013 Rise Set
Actual Time 6:27 AM AST 6:59 PM AST
Civil Twilight 6:05 AM AST 7:21 PM AST
Nautical Twilight 5:38 AM AST 7:47 PM AST
Astronomical Twilight 5:12 AM AST 8:14 PM AST
Moon 7:08 AM AST (4/11) 8:15 PM AST (4/11)
Length of Visible Light 13h 16m
Length of Day
12h 31m
New Moon, 2% of the Moon is Illuminated
Apr 11
New Moon
Apr 18
First Quarter
Apr 25
Full
May 2
Last Quarter
May 9
New

Hourly Weather History & Observations

Time (AST) Temp. Heat Index Dew Point Humidity Pressure Visibility Wind Dir Wind Speed Gust Speed Precip Events Conditions
2:00 AM 75 °F - 72 °F 88% 30.00 in 3 mi Calm Calm - -   Scattered Clouds
5:00 AM 71.6 °F - 69.8 °F 94% 29.95 in 6.2 mi Calm Calm - N/A   Partly Cloudy
8:00 AM 71.6 °F - 69.8 °F 94% 29.98 in 6.2 mi Calm Calm - N/A   Partly Cloudy
9:00 AM 80.6 °F 84.6 °F 71.6 °F 74% 30.01 in 6.2 mi Calm Calm - N/A   Partly Cloudy
10:00 AM 82.4 °F 87.2 °F 71.6 °F 70% 30.01 in 6.2 mi East 17.3 mph - N/A   Partly Cloudy
11:00 AM 84 °F - 72 °F 59% 30.02 in 10 mi East 15.7 mph - -   Partly Cloudy
11:00 AM 84.2 °F 89.6 °F 71.6 °F 66% 30.01 in 6.2 mi East 17.3 mph - N/A   Scattered Clouds
12:00 PM 84.2 °F 89.6 °F 71.6 °F 66% 30.01 in 6.2 mi East 13.8 mph - N/A   Scattered Clouds
1:00 PM 86.0 °F 93.4 °F 73.4 °F 66% 29.98 in 6.2 mi East 20.7 mph - N/A   Scattered Clouds
2:00 PM 86.0 °F 93.4 °F 73.4 °F 66% 29.98 in 6.2 mi East 16.1 mph - N/A   Scattered Clouds
3:00 PM 86.0 °F 95.1 °F 75.2 °F 70% 29.95 in 6.2 mi East 11.5 mph - N/A   Partly Cloudy
4:00 PM 86.0 °F 93.4 °F 73.4 °F 66% 29.92 in 6.2 mi East 17.3 mph - N/A   Partly Cloudy
5:00 PM 84 °F - 72 °F 61% 29.93 in 10 mi ESE 20.1 mph - -   Scattered Clouds
5:00 PM 84.2 °F 90.9 °F 73.4 °F 70% 29.92 in 6.2 mi ESE 20.7 mph - N/A   Partly Cloudy
6:00 PM 82.4 °F 87.2 °F 71.6 °F 70% 29.92 in 6.2 mi NNE 17.3 mph - N/A   Partly Cloudy
7:00 PM 80.6 °F 84.6 °F 71.6 °F 74% 29.95 in 6.2 mi ESE 19.6 mph - N/A   Partly Cloudy
8:00 PM 79 °F - 72 °F 75% 29.97 in 10 mi Calm Calm - -   Scattered Clouds
8:00 PM 78.8 °F - 75.2 °F 89% 29.95 in 6.2 mi Calm Calm - N/A   Partly Cloudy
11:00 PM 77 °F - 71 °F 76% 30.00 in 10 mi Calm Calm - -   Scattered Clouds
11:00 PM 77.0 °F - 71.6 °F 83% 29.98 in 6.2 mi Calm Calm - N/A   Partly Cloudy